When you browse on this site, cookies collect data to enhance your experience and personalize the content and advertising you see.
Visit our Privacy Policy to learn more. By continuing to use the site, you agree to this use of cookies and data.
  • en Suisse
  • Liste des pays
  • À 7 jours
  • Température de l'eau
  • Carte météo
  • Widgets météo
  • user-avatar
    Se connecter

    Météo par heure à San Luis

    Ce jour, 14 Novembre, Jeudi

    Heure Température Précipitation Vent Pression Humidité
    00:00 +23°C° 0 mm 5 m/s 698 mmHg 50%
    01:00 +23°C° 0 mm 5 m/s 698 mmHg 52%
    02:00 +22°C° 0 mm 5 m/s 697 mmHg 54%
    03:00 +22°C° 0 mm 6 m/s 698 mmHg 52%
    04:00 +21°C° 0 mm 6 m/s 698 mmHg 50%
    05:00 +21°C° 0 mm 6 m/s 698 mmHg 48%
    06:00 +22°C° 0 mm 6 m/s 698 mmHg 43%
    07:00 +23°C° 0 mm 5 m/s 699 mmHg 38%
    08:00 +25°C° 0 mm 5 m/s 700 mmHg 33%
    09:00 +27°C° 0 mm 4 m/s 700 mmHg 32%
    10:00 +29°C° 0 mm 3 m/s 700 mmHg 31%
    11:00 +31°C° 0 mm 2 m/s 700 mmHg 30%
    12:00 +31°C° 0 mm 2 m/s 699 mmHg 30%
    13:00 +31°C° 0 mm 2 m/s 699 mmHg 30%
    14:00 +32°C° 0 mm 2 m/s 698 mmHg 30%
    15:00 +32°C° 0 mm 2 m/s 697 mmHg 30%
    16:00 +32°C° 0 mm 2 m/s 697 mmHg 30%
    17:00 +32°C° 0 mm 2 m/s 696 mmHg 30%
    18:00 +31°C° 0 mm 3 m/s 696 mmHg 34%
    19:00 +29°C° 0 mm 4 m/s 696 mmHg 38%
    20:00 +27°C° 0 mm 5 m/s 697 mmHg 43%
    21:00 +27°C° 0 mm 4 m/s 697 mmHg 43%
    22:00 +26°C° 0 mm 4 m/s 697 mmHg 43%
    23:00 +26°C° 0 mm 4 m/s 697 mmHg 43%

    Demain, 15 Novembre, Vendredi

    Heure Température Précipitation Vent Pression Humidité
    00:00 +26°C° 0 mm 4 m/s 696 mmHg 44%
    01:00 +26°C° 0 mm 5 m/s 696 mmHg 45%
    02:00 +25°C° 0 mm 5 m/s 696 mmHg 46%
    03:00 +25°C° 0 mm 5 m/s 696 mmHg 45%
    04:00 +26°C° 0 mm 6 m/s 696 mmHg 45%
    05:00 +26°C° 0 mm 7 m/s 696 mmHg 44%
    06:00 +27°C° 0 mm 7 m/s 696 mmHg 42%
    07:00 +28°C° 0 mm 8 m/s 697 mmHg 39%
    08:00 +31°C° 0 mm 9 m/s 697 mmHg 37%
    09:00 +32°C° 0 mm 9 m/s 697 mmHg 34%
    10:00 +34°C° 0 mm 8 m/s 697 mmHg 31%
    11:00 +35°C° 0 mm 8 m/s 697 mmHg 28%
    12:00 +36°C° 0 mm 7 m/s 697 mmHg 27%
    13:00 +36°C° 0 mm 6 m/s 696 mmHg 25%
    14:00 +38°C° 0 mm 6 m/s 696 mmHg 23%
    15:00 +37°C° 0 mm 5 m/s 695 mmHg 24%
    16:00 +37°C° 0 mm 4 m/s 695 mmHg 24%
    17:00 +36°C° 0 mm 3 m/s 694 mmHg 25%
    18:00 +35°C° 0 mm 3 m/s 694 mmHg 28%
    19:00 +33°C° 0 mm 3 m/s 694 mmHg 31%
    20:00 +30°C° 0 mm 3 m/s 694 mmHg 34%
    21:00 +29°C° 0.3 mm 3 m/s 694 mmHg 40%
    22:00 +27°C° 0.3 mm 4 m/s 695 mmHg 45%
    23:00 +26°C° 0.3 mm 4 m/s 695 mmHg 50%

    Après-demain, 16 Novembre, Samedi

    Heure Température Précipitation Vent Pression Humidité
    00:00 +26°C° 0.5 mm 4 m/s 694 mmHg 53%
    01:00 +25°C° 0.5 mm 5 m/s 694 mmHg 56%
    02:00 +23°C° 0.5 mm 5 m/s 694 mmHg 60%
    03:00 +22°C° 1.3 mm 5 m/s 694 mmHg 67%
    04:00 +21°C° 1.3 mm 5 m/s 695 mmHg 75%
    05:00 +20°C° 1.3 mm 5 m/s 695 mmHg 82%
    06:00 +22°C° 0.5 mm 5 m/s 696 mmHg 74%
    07:00 +25°C° 0.5 mm 5 m/s 697 mmHg 65%
    08:00 +26°C° 0.5 mm 5 m/s 697 mmHg 57%
    09:00 +27°C° 0.1 mm 4 m/s 697 mmHg 53%
    10:00 +29°C° 0.1 mm 4 m/s 697 mmHg 50%
    11:00 +30°C° 0.1 mm 4 m/s 697 mmHg 47%
    12:00 +31°C° 0 mm 3 m/s 697 mmHg 43%
    13:00 +33°C° 0 mm 3 m/s 696 mmHg 39%
    14:00 +34°C° 0 mm 2 m/s 696 mmHg 35%
    15:00 +34°C° 0 mm 3 m/s 695 mmHg 35%
    16:00 +34°C° 0 mm 3 m/s 694 mmHg 35%
    17:00 +34°C° 0 mm 4 m/s 694 mmHg 35%
    18:00 +32°C° 0.2 mm 5 m/s 694 mmHg 42%
    19:00 +29°C° 0.2 mm 5 m/s 694 mmHg 50%
    20:00 +27°C° 0.2 mm 6 m/s 694 mmHg 57%
    21:00 +27°C° 0.1 mm 6 m/s 694 mmHg 59%
    22:00 +26°C° 0.1 mm 6 m/s 695 mmHg 61%
    23:00 +26°C° 0.1 mm 5 m/s 695 mmHg 62%

    17 Novembre, Dimanche

    Heure Température Précipitation Vent Pression Humidité
    00:00 +25°C° 0.2 mm 5 m/s 695 mmHg 61%
    01:00 +25°C° 0.2 mm 5 m/s 694 mmHg 60%
    02:00 +25°C° 0.2 mm 5 m/s 694 mmHg 59%
    03:00 +25°C° 0.1 mm 5 m/s 694 mmHg 59%
    04:00 +23°C° 0.1 mm 6 m/s 694 mmHg 59%
    05:00 +23°C° 0.1 mm 6 m/s 694 mmHg 58%
    06:00 +26°C° 0.1 mm 6 m/s 694 mmHg 52%
    07:00 +27°C° 0.1 mm 7 m/s 695 mmHg 46%
    08:00 +29°C° 0.1 mm 7 m/s 696 mmHg 40%
    09:00 +30°C° 0.1 mm 6 m/s 696 mmHg 38%
    10:00 +32°C° 0.1 mm 6 m/s 696 mmHg 35%
    11:00 +33°C° 0.1 mm 6 m/s 696 mmHg 32%
    12:00 +34°C° 0 mm 6 m/s 695 mmHg 31%
    13:00 +35°C° 0 mm 6 m/s 695 mmHg 29%
    14:00 +35°C° 0 mm 6 m/s 694 mmHg 28%
    15:00 +35°C° 0 mm 5 m/s 694 mmHg 27%
    16:00 +35°C° 0 mm 5 m/s 694 mmHg 26%
    17:00 +35°C° 0 mm 5 m/s 693 mmHg 26%
    18:00 +33°C° 0 mm 4 m/s 693 mmHg 30%
    19:00 +31°C° 0 mm 3 m/s 694 mmHg 34%
    20:00 +29°C° 0 mm 1 m/s 694 mmHg 37%
    21:00 +27°C° 0.1 mm 3 m/s 695 mmHg 49%
    22:00 +25°C° 0.1 mm 5 m/s 695 mmHg 61%
    23:00 +22°C° 0.1 mm 7 m/s 696 mmHg 73%

    18 Novembre, Lundi

    Heure Température Précipitation Vent Pression Humidité
    00:00 +22°C° 0.3 mm 7 m/s 696 mmHg 75%
    01:00 +21°C° 0.3 mm 6 m/s 696 mmHg 77%
    02:00 +21°C° 0.3 mm 5 m/s 696 mmHg 78%
    03:00 +21°C° 0 mm 5 m/s 696 mmHg 76%
    04:00 +21°C° 0 mm 5 m/s 697 mmHg 74%
    05:00 +21°C° 0 mm 4 m/s 697 mmHg 72%
    06:00 +22°C° 0 mm 5 m/s 698 mmHg 70%
    07:00 +22°C° 0 mm 5 m/s 698 mmHg 68%
    08:00 +23°C° 0 mm 6 m/s 699 mmHg 65%
    09:00 +24°C° 0.1 mm 6 m/s 699 mmHg 63%
    10:00 +24°C° 0.1 mm 6 m/s 699 mmHg 60%
    11:00 +26°C° 0.1 mm 7 m/s 699 mmHg 58%
    12:00 +27°C° 0.3 mm 7 m/s 699 mmHg 56%
    13:00 +28°C° 0.3 mm 6 m/s 698 mmHg 54%
    14:00 +29°C° 0.3 mm 6 m/s 698 mmHg 52%
    15:00 +29°C° 0.1 mm 6 m/s 697 mmHg 51%
    16:00 +29°C° 0.1 mm 6 m/s 697 mmHg 50%
    17:00 +29°C° 0.1 mm 6 m/s 697 mmHg 49%
    18:00 +27°C° 0.3 mm 6 m/s 697 mmHg 56%
    19:00 +26°C° 0.3 mm 6 m/s 697 mmHg 63%
    20:00 +23°C° 0.3 mm 6 m/s 696 mmHg 69%
    21:00 +22°C° 0.8 mm 6 m/s 697 mmHg 72%
    22:00 +22°C° 0.8 mm 5 m/s 697 mmHg 74%
    23:00 +21°C° 0.8 mm 4 m/s 697 mmHg 77%

    19 Novembre, Mardi

    Heure Température Précipitation Vent Pression Humidité
    00:00 +21°C° 0.8 mm 4 m/s 697 mmHg 78%
    01:00 +21°C° 0.8 mm 3 m/s 696 mmHg 78%
    02:00 +21°C° 0.8 mm 3 m/s 696 mmHg 79%
    03:00 +21°C° 0.3 mm 3 m/s 696 mmHg 77%
    04:00 +21°C° 0.3 mm 4 m/s 696 mmHg 75%
    05:00 +22°C° 0.3 mm 5 m/s 696 mmHg 73%
    06:00 +23°C° 0 mm 6 m/s 697 mmHg 64%
    07:00 +24°C° 0 mm 6 m/s 697 mmHg 56%
    08:00 +26°C° 0 mm 7 m/s 697 mmHg 47%
    09:00 +28°C° 0 mm 7 m/s 697 mmHg 42%
    10:00 +30°C° 0 mm 7 m/s 697 mmHg 37%
    11:00 +33°C° 0 mm 8 m/s 697 mmHg 31%
    12:00 +34°C° 0 mm 8 m/s 696 mmHg 30%
    13:00 +35°C° 0 mm 7 m/s 696 mmHg 28%
    14:00 +36°C° 0 mm 7 m/s 695 mmHg 26%
    15:00 +36°C° 0 mm 6 m/s 694 mmHg 26%
    16:00 +36°C° 0 mm 6 m/s 694 mmHg 26%
    17:00 +36°C° 0 mm 5 m/s 693 mmHg 26%
    18:00 +34°C° 0 mm 4 m/s 693 mmHg 30%
    19:00 +31°C° 0 mm 3 m/s 693 mmHg 35%
    20:00 +29°C° 0 mm 3 m/s 693 mmHg 39%
    21:00 +28°C° 0 mm 3 m/s 694 mmHg 39%
    22:00 +28°C° 0 mm 4 m/s 694 mmHg 40%
    23:00 +28°C° 0 mm 4 m/s 694 mmHg 40%
    Voir plus